O3B FM6 (40081 NORAD) Tracking and Keplerian Element Data

This shows tracking and keplerian element data for the satellite.

Feedback or suggestion? Click here.




ElementValue
Catalog40081
NameO3B FM6
Epoch Orbit13155
Epoch Day269.82252662
Epoch Year2021
RAAN11.9123
Inclination0.0452
Eccentricity0.0002583
Argument of Perigee173.2425
Mean Anonmoly174.8467
Mean Motion5.00115624
Decay Rate-2.6E-07
L11 40081U 14038C 21269.82252662 -.00000026 00000-0 00000-0 0 9991
L22 40081 0.0452 11.9123 0002583 173.2425 174.8467 5.00115624131551

Live tracking and technical data element details for O3B FM6 (NORAD 40081). O3B FM6 can be tracked NOW for your location showing map with azimuth and elevation plus other details from your city location.

Track the satellite on the map from your city or location and see movement details for azimuth, elevation, latitude, longitude, range, height, and movement on the map or in text.







IsCatalogInMostPopularTable: catalog: 40081, numindb: 524
Update: records affected: 1



GetName: 40081 O3B FM6

Hit Count: updated at: Tue, 28 Sep 2021 15:49:35 GMT